#timestamp,LO_Frequency,Hit,StdDev 
1513418415.7,286047000.1,N
1513418435.6,286047000.5,N
1513418455.4,286047000.8,N
1513418475.2,286046998.5,N
1513418495.1,286046998.4,N
1513418496.0,286046998.4,N
1513418515.8,286046999.2,N
1513418535.7,286046999.3,N
1513418555.5,286047000.0,N
1513418575.3,286046999.3,N
1513418595.2,286046996.6,N
1513418615.0,286046999.4,N
1513418615.9,286046999.4,N
1513418635.8,286046998.4,N
1513418655.6,286046997.1,N
1513418675.4,286046994.9,N
1513418695.3,286046997.8,N
1513418715.1,286047001.6,N
1513418735.8,286047002.4,N
1513418755.7,286047002.7,N
1513418775.5,286047000.0,N
1513418795.4,286047000.5,N
1513418815.2,286046998.5,N
1513418835.0,286046998.7,N
1513418835.9,286046998.7,N
1513418855.8,286046999.1,N
1513418875.6,286046998.1,N
1513418895.5,286046999.6,N
1513418915.3,286046999.5,N
1513418935.1,286046997.2,N
1513418955.9,286046997.1,N
1513418975.7,286046997.8,N
1513418995.5,286046997.3,N
1513419015.4,286046999.2,N
1513419035.2,286046996.5,N
1513419055.1,286046999.9,N
1513419056.0,286046999.9,N
1513419075.8,286047000.7,N
1513419095.6,286046999.3,N
1513419115.5,286046999.3,N
1513419135.3,286047002.7,N
1513419155.2,286046998.3,N
1513419175.9,286046997.1,N
1513419195.7,286046997.6,N
1513419215.6,286046997.7,N
1513419235.4,286046993.3,Y
1513419255.3,286046995.6,P
1513419275.1,286046993.3,P
1513419276.0,286046993.3,N
1513419295.8,286046996.4,N
1513419315.7,286046993.5,Y
1513419335.5,286046998.6,P
1513419355.3,286047001.2,N
1513419375.2,286046998.2,N
1513419395.0,286047000.7,N
1513419395.9,286047000.7,N
1513419415.8,286047000.0,N
1513419435.6,286047000.6,N
1513419455.4,286046998.5,N
1513419475.3,286047002.7,N
1513419495.1,286047000.5,N
1513419515.9,286046998.6,N
1513419535.7,286047000.3,N
1513419555.5,286047002.7,N
1513419575.4,286047000.1,N
1513419595.2,286047000.4,N
1513419615.0,286047000.5,N
1513419616.0,286047000.5,N
1513419635.8,286047002.0,N
1513419655.6,286047007.4,Y
1513419675.5,286047005.3,P
1513419695.3,286047005.7,N
1513419715.1,286047001.4,N
1513419735.9,286047001.6,N
1513419755.7,286047001.8,N
1513419775.6,286047001.6,N
1513419795.4,286047001.9,N
1513419815.2,286047001.6,N
1513419835.1,286047002.0,N
1513419836.0,286047002.0,N
1513419855.8,286047001.4,N
1513419875.7,286047002.0,N
1513419895.5,286047001.4,N
1513419915.3,286046999.7,N
1513419935.2,286047001.2,N
1513419955.0,286047000.9,N
1513419955.9,286047000.9,N
1513419975.7,286047000.7,N
1513419995.6,286047000.7,N
1513420015.4,286047001.0,N
1513420035.3,286046998.6,N
1513420055.1,286046998.5,N
1513420075.8,286046998.4,N
1513420095.7,286047000.9,N
1513420115.5,286047001.2,N
1513420135.4,286046998.8,N
1513420155.2,286046999.2,N
1513420175.0,286047000.5,N
1513420175.9,286047000.5,N
1513420195.8,286047000.8,N
1513420215.6,286046998.5,N
1513420235.5,286046996.9,N
1513420255.3,286046997.7,N
1513420275.1,286046999.0,N
1513420295.9,286046998.5,N
1513420315.7,286046998.8,N
1513420335.5,286046996.6,N
1513420355.4,286046996.6,N
1513420375.2,286046996.9,N
1513420395.1,286046998.5,N
1513420396.0,286046998.5,N
1513420415.8,286047000.0,N
1513420435.6,286047002.7,N
1513420455.5,286047002.0,N
1513420475.3,286047003.9,N
1513420495.2,286047002.0,N
1513420515.9,286047004.4,N
1513420535.7,286047001.9,N
1513420555.6,286047004.3,N
1513420575.4,286047003.4,N
1513420595.3,286047007.6,Y
1513420615.1,286047005.5,P
1513420616.0,286047005.5,N
1513420635.8,286047005.2,N
1513420655.7,286047004.8,N
1513420675.5,286047005.1,N
1513420695.4,286047006.0,Y
1513420715.2,286047000.6,P
1513420735.0,286047000.7,N
1513420735.9,286047000.7,N
1513420755.8,286046999.7,N
1513420775.6,286046999.7,N
1513420795.4,286047002.4,N
1513420815.3,286047001.0,N
1513420835.1,286047000.7,N
1513420855.9,286046999.4,N
1513420875.7,286046996.9,N
1513420895.5,286046997.2,N
1513420915.4,286046997.5,N
1513420935.2,286046997.5,N
1513420955.1,286046997.9,N
1513420956.0,286046997.9,N
1513420975.8,286046995.5,N
1513420995.6,286046993.3,Y
1513421015.5,286046997.5,P
1513421035.3,286046995.8,P
1513421055.1,286046996.2,N
1513421075.9,286046996.0,N
1513421095.7,286046996.7,N
1513421115.6,286046997.7,N
1513421135.4,286046999.0,N
1513421155.2,286046998.7,N
1513421175.1,286046998.9,N
1513421176.0,286046998.9,N
1513421195.8,286046998.7,N
1513421215.6,286046999.3,N
1513421235.5,286046996.9,N
1513421255.3,286046997.5,N
1513421275.2,286046997.7,N
1513421295.9,286046996.3,Y
1513421315.7,286046996.9,P
1513421335.6,286046996.9,P
1513421355.4,286046999.4,N
1513421375.3,286046998.3,N
1513421395.1,286046999.4,N
1513421396.0,286046999.4,N
1513421415.8,286046997.0,N
1513421435.7,286046996.6,Y
1513421455.5,286046998.5,P
1513421475.4,286047001.0,P
1513421495.2,286047002.0,N
1513421515.0,286047000.2,N
1513421515.9,286047000.2,N
1513421535.8,286047002.7,N
1513421555.6,286046999.8,N
1513421575.4,286047002.8,N
1513421595.3,286046998.1,N
1513421615.1,286047000.9,N
1513421635.9,286046999.9,N
1513421655.7,286047001.0,N
1513421675.5,286047000.2,N
1513421695.4,286047000.4,N
1513421715.2,286047001.8,N
1513421735.0,286047004.0,N
1513421735.9,286047004.0,N
1513421755.8,286047001.8,N
1513421775.6,286047001.7,N
1513421795.5,286047003.9,N
1513421815.3,286047001.4,N
1513421835.1,286047002.4,N
1513421855.9,286046999.8,N
1513421875.7,286046998.1,N
1513421895.5,286047001.1,N
1513421915.4,286047000.5,N
1513421935.2,286047000.9,N
1513421955.1,286047000.3,N
1513421956.0,286047000.3,N
1513421975.8,286046998.1,N
1513421995.6,286047000.4,N
